User: anonymous   Login
Location: Unspecified
(0.0000°N, 0.0000°E)
Time: 22:28:15
(UTC+00:00)
Language:

STSS DEMO 2 (USA 209) - Orbit

View from above orbital plane
View from above orbital plane
View from above satellite
View from above satellite

Ground track
Ground track

The orbit data is extracted from the following two-line orbital elements,

1 35938U 09052B   14350.75460935 0.00000000  00000-0  00000-0 0    09
2 35938  57.9866 333.3259 0014652  72.4666 287.5334 12.79135122    03
Epoch (UTC): 16 December 2014 18:06:38
Eccentricity: 0.0014652
inclination: 57.9866°
perigee height: 1333 km
apogee height: 1356 km
right ascension of ascending node: 333.3259°
argument of perigee: 72.4666°
revolutions per day: 12.79135122
mean anomaly at epoch: 287.5334°
orbit number at epoch: 0

The dashed part of the orbit path shows where the satellite is in the earth's shadow,  

DLR